STARLINK-31951, 59890

Orbit data source: Space-Track

STARLINK-31951, 59890 is a payload satellite owned by SpaceX/Seattle (US) in LEO that was launched on Tue, 28 May 2024 UTC via an FALCON 9 launch vehicle from the Air Force Eastern Test Range (AFETR). Payload-class satellites include a variety of spacecraft equipped with specific instruments for various scientific and technological missions. These include communications satellites like Starlink; space stations such as the ISS; scientific satellites like the Hubble; Earth observation satellites from companies like Planet Labs, Umbra, and HawkEye 360; GPS; miniature CubeSats for education and research; and military/defense satellites.

Loading next visibility...
Identifier
59890, 2024-100F
Orbit
LEO
Last TLE update
12 hours ago
Origin
Manufacturer
SpaceX/Seattle
Mission
Operational spacecraft
Bus & Motor
STARLINK V2M, Unknown motor
Mass
730 kg wet, ~700 kg dry
Launch date (UTC)
2024-05-28 (1 year ago)
Launch vehicle
FALCON 9
Launch site
Air Force Eastern Test Range (AFETR)
Object type
Payload
Rocket body
Debris
Shape & HBR
Unknown
Radar Cross Section
Large (>1 m²)

Expand to show TLE details & history

TLE from 12 hours ago
0 STARLINK-31951
1 59890U 24100F   25179.16893440 -.00002389  00000-0 -77373-4 0  9992
2 59890  43.0051 122.5881 0001321 270.8103  89.2598 15.27556651 62137
Epoch: 2025-06-28T04:03Z
TLE epoch observation values (Epoch: 2025-06-28T04:03:15.932Z)
Latitude
0.00004°
Longitude
145.26045°
Altitude
482.883 km
Speed
7.626 km/s
True Right ascension
08h 10m 21s
True Declination
0° 00' 00"
Sunlit
Object was in daylight at epoch
Visualization orbit readout
Latitude
31.01804°
Longitude
-77.33577°
Altitude
484.59 km
Speed
7.627 km/s
Apparent Right ascension
16h 18m 27s
Apparent Declination
-3° 04' 14"
Sunlit
Object is in full shadow
Visualization observer readout
Local Sidereal Time
03:04:07
Azimuth
330.667° NNW
Elevation
-49.493°
Doppler factor
1
Orbital elements
Apogee altitude
485.97 km
Perigee altitude
484.157 km
Semi-major axis
6,863.2 km
Eccentricity
0.00013
Inclination
43.0051°
RAAN
122.5881°
Arg. of periapsis
270.8103°
True anomaly
Unknown
Mean anomaly
89.2598°
Eccentric anomaly
Unknown
Mean motion
3.81727 °/min
Orbital period
94.31 mins
BSTAR
-0.000077373
Loading maneuver chart data...
Loading SW <> Apogee altitude chart data...
Loading historical data...
Loading historical data...
Loading historical data...
Loading historical data...
Loading historical data...
Loading historical data...
Loading historical data...

STARLINK-31951 Visibility forecast

Observer location: undefined°, undefined°

Span
Click to sort rows by Start time (UTC) header in descending order
Start Az.
Max El. time (UTC)
Max El. Az.
Max El.
End time (UTC)
End Az.
5 mins2025-06-28 23:04:39.386Z201.17° SSW2025-06-28 23:07:39.386Z139.105° SSE23.762°2025-06-28 23:09:39.386Z98.042° ESE
6 mins2025-06-29 00:43:39.386Z256.359° W2025-06-29 00:45:39.386Z273.01° WNW42.692°2025-06-29 00:49:39.386Z71.207° E
6 mins2025-06-29 02:22:39.386Z288.759° WNW2025-06-29 02:25:39.386Z25.773° NE36.857°2025-06-29 02:28:39.386Z77.444° E
6 mins2025-06-29 04:01:39.386Z288.176° WNW2025-06-29 04:04:39.386Z109.142° ESE44.225°2025-06-29 04:07:39.386Z109.232° ESE
4 mins2025-06-29 05:41:39.386Z245.913° WSW2025-06-29 05:42:39.386Z224.093° SW20.716°2025-06-29 05:45:39.386Z165.198° S
|